This is the latest recevied weather packets stored in our database for station/object WB5LJZ-5. If no packets are shown the sender has not sent any weather packets the latest 10 day(s).
| Time | Temp. | Humidity | Pressure | Rain* | Wind** | Luminosity | Snow |
|---|---|---|---|---|---|---|---|
| 1777492409 | 26.67° C | - | - | 0 mm | 3.13 m/s, 44° | - | - |
| 1777491773 | 26.67° C | - | - | 0 mm | 4.02 m/s, 32° | - | - |
| 1777491138 | 26.67° C | - | - | 0 mm | 2.68 m/s, 35° | - | - |
| 1777490502 | 26.67° C | - | - | 0 mm | 2.68 m/s, 25° | - | - |
| 1777489866 | 26.67° C | - | - | 0 mm | 2.68 m/s, 45° | - | - |
| 1777489231 | 26.67° C | - | - | 0 mm | 3.58 m/s, 86° | - | - |
| 1777488595 | 26.67° C | - | - | 0 mm | 3.58 m/s, 25° | - | - |
| 1777487959 | 26.67° C | - | - | 0 mm | 3.13 m/s, 55° | - | - |
| 1777487323 | 26.67° C | - | - | 0 mm | 0 m/s | - | - |
| 1777486688 | 26.67° C | - | - | 0 mm | 1.79 m/s, 38° | - | - |
| 1777486052 | 26.67° C | - | - | 0 mm | 2.24 m/s, 70° | - | - |
| 1777485416 | 26.67° C | - | - | 0 mm | 2.24 m/s, 32° | - | - |
| 1777484780 | 26.67° C | - | - | 0 mm | 3.13 m/s, 45° | - | - |
| 1777484145 | 26.11° C | - | - | 0 mm | 2.68 m/s, 83° | - | - |
| 1777483509 | 26.11° C | - | - | 0 mm | 0 m/s | - | - |
| 1777482873 | 26.11° C | - | - | 0 mm | 0 m/s | - | - |
| 1777482237 | 26.11° C | - | - | 0 mm | 0 m/s | - | - |
| 1777481602 | 25.56° C | - | - | 0 mm | 0 m/s | - | - |
| 1777480966 | 25.56° C | - | - | 0 mm | 0 m/s | - | - |
| 1777480330 | 25.56° C | - | - | 0 mm | 0.45 m/s, 104° | - | - |
| 1777479695 | 25° C | - | - | 0 mm | 0 m/s | - | - |
| 1777479059 | 25.56° C | - | - | 0 mm | 0 m/s | - | - |
| 1777478423 | 25° C | - | - | 0 mm | 0 m/s | - | - |
| 1777477787 | 25.56° C | - | - | 0 mm | 0 m/s | - | - |
| 1777477152 | 25.56° C | - | - | 0 mm | 0 m/s | - | - |
* Rain latest hour (hover to see other rain measurements)
** Current wind speed in m/s (hover to see current wind gust speed)